GW0902 Weather Reports


time (UTC)temp
C
wind
direction
speed
KPH
gust
KPH
rain 1hr
cm
rain 24hr
cm
rain mn
cm
humidity
%
barometer
mb
20260507213030 23 310 0.0 8.0 0.00 0.00 0.00 34 1016.4
20260507211540 23 298 1.6 9.7 0.00 0.00 0.00 36 1016.6
20260507203106 22 321 0.0 6.4 0.00 0.00 0.00 38 1017.0
20260507201531 22 316 0.0 8.0 0.00 0.00 0.00 37 1017.0
20260507200147 22 318 0.0 6.4 0.00 0.00 0.00 38 1017.2
20260507194528 21 316 0.0 3.2 0.00 0.00 0.00 39 1017.3
20260507193032 21 319 0.0 4.8 0.00 0.00 0.00 41 1017.5
20260507191529 21 327 0.0 3.2 0.00 0.00 0.00 44 1017.8
20260507190029 21 355 0.0 4.8 0.00 0.00 0.00 44 1018.0
20260507184533 21 32 0.0 8.0 0.00 0.00 0.00 44 1018.1
20260507183040 20 31 0.0 3.2 0.00 0.00 0.00 47 1018.3
20260507181530 20 21 0.0 4.8 0.00 0.00 0.00 48 1018.4
20260507180144 20 1 0.0 3.2 0.00 0.00 0.00 49 1018.5
20260507174606 20 325 0.0 3.2 0.00 0.00 0.00 51 1018.6
20260507173028 20 18 0.0 4.8 0.00 0.00 0.00 50 1018.9
20260507171533 20 3 0.0 4.8 0.00 0.00 0.00 52 1018.9
20260507170028 20 344 0.0 1.6 0.00 0.00 0.00 54 1019.0
20260507164531 20 353 0.0 3.2 0.00 0.00 0.00 55 1019.0
20260507163031 18 356 0.0 1.6 0.00 0.00 0.00 57 1019.1
20260507161533 17 289 0.0 9.7 0.00 0.00 0.00 57 1019.2
20260507160031 17 278 1.6 12.9 0.00 0.00 0.00 59 1019.5
20260507154532 17 284 0.0 6.4 0.00 0.00 0.00 62 1019.7
20260507153106 16 236 0.0 1.6 0.00 0.00 0.00 66 1019.8
20260507151530 14 190 0.0 4.8 0.00 0.00 0.00 69 1019.8
20260507144532 13 233 3.2 11.3 0.00 0.00 0.00 73 1019.6
20260507143032 12 234 4.8 12.9 0.00 0.00 0.00 73 1019.6
20260507141606 12 282 0.0 6.4 0.00 0.00 0.00 76 1019.5
20260507140030 11 312 0.0 3.2 0.00 0.00 0.00 78 1019.3
20260507134533 11 299 0.0 6.4 0.00 0.00 0.00 79 1019.1
20260507133106 11 312 0.0 6.4 0.00 0.00 0.00 79 1019.0
20260507131531 11 294 0.0 4.8 0.00 0.00 0.00 78 1019.0
20260507130029 11 305 0.0 6.4 0.00 0.00 0.00 78 1019.1
20260507124531 11 294 0.0 1.6 0.00 0.00 0.00 79 1019.2
20260507123029 11 317 0.0 1.6 0.00 0.00 0.00 79 1019.1
20260507121527 11 303 0.0 1.6 0.00 0.00 0.00 79 1018.9
20260507120029 11 294 0.0 3.2 0.00 0.00 0.00 79 1018.8
20260507114606 11 294 0.0 3.2 0.00 0.00 0.00 79 1018.7
20260507113031 12 299 0.0 6.4 0.00 0.00 0.00 79 1018.6
20260507111605 12 304 0.0 1.6 0.00 0.00 0.00 79 1018.5
20260507110032 12 301 0.0 4.8 0.00 0.00 0.00 78 1018.3
20260507104531 12 300 0.0 3.2 0.00 0.00 0.00 77 1018.2
20260507101531 13 320 0.0 1.6 0.00 0.00 0.00 75 1018.3
20260507100037 13 316 0.0 1.6 0.00 0.00 0.00 75 1018.3
20260507094530 13 313 0.0 0.0 0.00 0.00 0.00 75 1018.4
20260507093032 13 328 0.0 1.6 0.00 0.00 0.00 75 1018.4
20260507091529 13 5 0.0 3.2 0.00 0.00 0.00 75 1018.4
20260507090032 13 312 0.0 6.4 0.00 0.00 0.00 76 1018.4
20260507084605 13 273 0.0 1.6 0.00 0.00 0.00 75 1018.3
20260507083033 14 270 0.0 1.6 0.00 0.00 0.00 73 1018.2
20260507081532 14 236 0.0 3.2 0.00 0.00 0.00 74 1018.3
20260507080029 15 225 0.0 0.0 0.00 0.00 0.00 73 1018.4
20260507074646 15 351 0.0 3.2 0.00 0.00 0.00 73 1018.4
20260507073106 15 320 0.0 4.8 0.00 0.00 0.00 73 1018.3
20260507071532 15 292 0.0 6.4 0.00 0.00 0.00 73 1018.3
20260507064532 15 294 0.0 4.8 0.00 0.00 0.00 71 1018.4
20260507063030 15 278 0.0 6.4 0.00 0.00 0.00 71 1018.5
20260507061529 16 284 0.0 8.0 0.00 0.00 0.00 71 1018.5
20260507060031 16 282 0.0 8.0 0.00 0.00 0.00 70 1018.7
20260507054530 16 302 0.0 9.7 0.00 0.00 0.00 68 1018.8
20260507051529 16 300 0.0 6.4 0.00 0.00 0.00 64 1019.0
20260507044607 17 288 0.0 4.8 0.00 0.00 0.00 59 1018.9
20260507041528 18 267 1.6 8.0 0.00 0.00 0.00 53 1018.6
20260507040037 18 297 0.0 4.8 0.00 0.00 0.00 53 1018.5
20260507034531 18 342 0.0 4.8 0.00 0.00 0.00 51 1018.4
20260507033030 19 289 0.0 4.8 0.00 0.00 0.00 50 1018.2
20260507030104 20 270 1.6 16.1 0.00 0.00 0.00 49 1018.2
20260507024529 20 242 4.8 16.1 0.00 0.00 0.00 49 1018.0
20260507021532 20 280 1.6 9.7 0.00 0.00 0.00 49 1017.8
20260507020030 20 274 3.2 16.1 0.00 0.00 0.00 48 1017.7
20260507014529 20 282 3.2 19.3 0.00 0.00 0.00 47 1017.5
20260507013030 21 290 1.6 12.9 0.00 0.00 0.00 46 1017.5
20260507011607 21 285 3.2 17.7 0.00 0.00 0.00 45 1017.6
20260507004530 21 294 1.6 12.9 0.00 0.00 0.00 44 1017.5
20260507000029 22 284 1.6 11.3 0.00 0.00 0.00 41 1017.2
20260506234531 23 291 1.6 14.5 0.00 0.00 0.00 41 1017.0
20260506233029 24 290 3.2 11.3 0.00 0.00 0.00 41 1016.9
20260506230033 25 308 0.0 3.2 0.00 0.00 0.00 40 1017.0
20260506224530 24 282 3.2 12.9 0.00 0.00 0.00 40 1017.0
20260506223029 25 293 3.2 16.1 0.00 0.00 0.00 40 1017.2
20260506221530 25 308 1.6 20.9 0.00 0.00 0.00 41 1017.5
20260506220035 25 326 0.0 9.7 0.00 0.00 0.00 40 1017.6
20260506214605 25 343 0.0 1.6 0.00 0.00 0.00 42 1017.4